Miscellaneous Local Product
Issued by NWS Hastings, NE

Home | Current Version | Previous Version | Graphics & Text | Print | Product List | Glossary Off
Versions: 1 2 3 4 5 6 7 8 9 10 11 12 13 14 15 16 17 18 19 20 21 22 23 24 25 26 27 28 29 30 31 32 33 34 35 36 37 38 39 40 41 42 43 44 45 46 47 48 49 50

000
AXUS43 KGID 080702
MISGRI

GID CWA HOURLY WEATHER ROUNDUP
NATIONAL WEATHER SERVICE HASTINGS NE
200 AM CDT WED JUL 08 2015

NOTE: "FAIR" INDICATES FEW OR NO CLOUDS BELOW 12,000 FEET WITH NO
SIGNIFICANT WEATHER AND/OR OBSTRUCTIONS TO VISIBILITY.

...SOUTH CENTRAL NEBRASKA...

CITY           SKY/WX    TMP DP  RH WIND       PRES   REMARKS
GRAND ISLAND   CLEAR     55  51  86 CALM      30.10F
HASTINGS       PTCLDY    55  50  83 E3        30.10S
KEARNEY        PTCLDY    54  48  82 E3        30.10S
ORD            PTCLDY    51  48  89 CALM      30.08F
YORK           CLEAR     54  54 100 CALM      30.10S
AURORA         CLEAR     54  53  94 E6        30.09F
LEXINGTON      PTCLDY    58  54  85 SE6       30.09F
HOLDREGE       PTCLDY    55  51  86 SE6       30.09F
HEBRON         CLEAR     54  51  89 CALM      30.09S

...NEBRASKA PANHANDLE...

CITY           SKY/WX    TMP DP  RH WIND       PRES   REMARKS
CHADRON        PTCLDY    64  50  60 S14G21    30.01F
ALLIANCE       CLOUDY    62  52  69 S10       30.06F
SCOTTSBLUFF    CLOUDY    62  51  67 E9        30.05F
SIDNEY         CLOUDY    60  49  66 SE7       30.09F

...WESTERN AND NORTH CENTRAL NEBRASKA...

CITY           SKY/WX    TMP DP  RH WIND       PRES   REMARKS
VALENTINE      PTCLDY    60  52  74 S7        30.05F
AINSWORTH      PTCLDY    57  52  82 SE9       30.06F
ONEILL         PTCLDY    55  52  89 S5        30.09F
BROKEN BOW     PTCLDY    56  52  86 CALM      30.09F
IMPERIAL       CLOUDY    63  48  58 SE12      30.07F
NORTH PLATTE   CLOUDY    62  51  67 S8        30.08F
MCCOOK         MOCLDY    60  50  69 CALM      30.08S

...EASTERN NEBRASKA...

CITY           SKY/WX    TMP DP  RH WIND       PRES   REMARKS
NORFOLK        CLEAR     53  51  93 SE5       30.09F
SO SIOUX CITY  PTCLDY    57  51  80 E3        30.10F
TEKAMAH        PTCLDY    53  50  89 CALM      30.09F
ALBION         PTCLDY    50  47  92 CALM      30.10S
OMAHA EPPLEY   CLEAR     61  52  72 E3        30.09S
OFFUTT AFB     CLEAR     56  53  90 E3        30.08S
MILLARD        CLEAR     57  54  91 CALM      30.08F
LINCOLN        CLEAR     55  52  89 N3        30.09F
NEBRASKA CITY  PTCLDY    57  51  81 NE3       30.08F
BEATRICE       CLEAR     57  53  85 NE3       30.08S
FALLS CITY     CLOUDY    62  57  83 NE5       30.06F

...NORTHERN KANSAS...

CITY           SKY/WX    TMP DP  RH WIND       PRES   REMARKS
GOODLAND       CLOUDY    59  46  62 SE10      30.09F
HILL CITY      PTCLDY    56  49  77 E6        30.09S
NORTON         MOSUNNY   57  45  62 E6        30.07F
PHILLIPSBURG   CLEAR     59  50  72 CALM      30.08F
SMITH CENTER   CLEAR     55  48  76 E8        30.08F
HAYS           CLEAR     57  45  62 E3        30.07F
RUSSELL        CLEAR     56  51  84 SE6       30.06F
CONCORDIA      CLEAR     59  52  77 CALM      30.07F
SALINA         PTCLDY    61  54  77 NW5       30.05F
TOPEKA         CLOUDY    66  62  87 E5        30.04F



USA.gov is the U.S. government's official web portal to all federal, state and local government web resources and services.